CZ-4 DEB, 26143

Orbit data source: Space-Track

CZ-4 DEB, 26143 is space debris in LEO originally from a launch on Thu, 14 Oct 1999 UTC launched from the Taiyaun Space Center, China (TSC). Debris objects in space refer to the collection of defunct objects orbiting the Earth. Examples of debris include non-operational satellites, rocket bodies, and fragments generated from explosions, collisions, or faulty payload assembly.

Loading next visibility...
CZ-4 DEB details
Identifier
26143, 1999-057AF
Orbit
LEO
Last TLE update1 day ago
Origin
Flag of CNCNSA (CN / PRC)
ManufacturerUnknown
MissionSpacecraft
Bus & MotorUnknown
MassUnknown
Launch date (UTC)
1999-10-14 (25 years ago)
Launch vehicleUnknown
Launch site
Taiyaun Space Center, China (TSC)
Object type
Payload
Rocket body
Debris
Shape & HBRUnknown
Radar Cross SectionSmall (<0.1 m²)

Expand to show TLE details & history

TLE from 1 day ago
0 CZ-4 DEB
1 26143U 99057AF  24347.28348446  .00000683  00000-0  58624-3 0  9990
2 26143  98.9473 352.2848 0479325  87.2191 341.2624 13.46875817213400
Epoch: 2024-12-12T06:48Z
Definitive object data (Epoch: 2024-12-12T06:48:13.057Z)
Latitude65.13899°
Longitude149.0122°
Altitude758.072 km
Speed7.649 km/s
True Right ascension22h 10m 07s
True Declination65° 00' 27"
Sunlit
Object was in daylight at TLE epoch
Visualization TLE readout
Latitude57.5414°
Longitude155.71062°
Altitude766.86 km
Speed7.638 km/s
Apparent Right ascension00h 09m 54s
Apparent Declination13° 17' 35"
Sunlit
Object is in daylight
Visualization observer readout
Local Sidereal Time13:22:03
Azimuth21.369° NNE
Elevation-34.209°
Doppler factor1
Orbital elements
Apogee altitude1,438.571 km
Perigee altitude723.497 km
Semi-major axis7,459.171 km
Eccentricity0.0479325
Inclination98.9473°
RAAN352.2848°
Arg. of periapsis87.2191°
True anomaly339.39244°
Mean anomaly341.2624°
Eccentric anomaly340.33836°
Mean motion3.36905 °/min
BSTAR0.00058624
Orbital period106.86 mins
Loading maneuver chart data...
Loading historical data...
Loading historical data...
Loading historical data...
Loading historical data...
Loading historical data...
Loading historical data...
Loading historical data...

CZ-4 DEB Visibility forecast

Observer location: undefined°, undefined

Span
Click to sort rows by Start time (UTC) header in descending order
Start Az.
Max El. time (UTC)
Max El. Az.
Max El.
End time (UTC)
End Az.
7 mins2024-12-13 23:38:24.347Z122.874° SE2024-12-13 23:42:24.347Z61.342° ENE27.131°2024-12-13 23:45:24.347Z14.863° NNE
7 mins2024-12-14 01:24:24.347Z213.898° SW2024-12-14 01:27:24.347Z257.455° W25.304°2024-12-14 01:31:24.347Z317.408° NNW
8 mins2024-12-14 12:34:24.347Z47.622° ENE2024-12-14 12:37:24.347Z92.143° ESE26.417°2024-12-14 12:42:24.347Z155.567° SSE
8 mins2024-12-14 14:20:24.347Z340.257° N2024-12-14 14:23:24.347Z287.355° WNW28.986°2024-12-14 14:28:24.347Z228.871° WSW
|